Temp
4 3 3 3 3 3 3 4 4 5 4 4 4 4 4 4 4 4 4 5 5 5 5 6 6 6 6 8 7 9 8 8 10 11 11 12 12 13 10 11 12 12 11 12 11 11 11
4 3 3 3 3 3 3 3 4 4 4 3 4 4 3 4 4 4 4 4 4 5 5 5 6 6 6 7 7 8 8 8 9 10 11 11 12 13 12 11 11 11 12 11 11 11 11
4 3 3 3 3 3 3 3 4 4 3 3 3 3 3 3 4 4 4 4 4 4 4 5 5 5 6 6 7 8 7 8 9 10 10 11 12 12 12 10 11 11 10 10 10 11 10
4 3 3 3 2 2 2 2 3 3 4 3 3 3 4 4 4 4 4 3 4 4 4 5 5 5 5 6 6 6 7 8 9 9 10 11 12 11 11 10 10 10 9 8 10 10 10
5 5 3 3 3 2 2 2 2 3 3 3 3 4 4 4 4 4 3 3 3 4 4 4 5 6 4 5 6 6 6 8 9 9 10 11 11 10 10 7 5 9 6 10 9 10 10
5 5 4 3 3 3 3 3 3 2 3 3 3 3 3 4 4 4 3 3 3 4 4 4 4 4 4 4 5 6 7 8 9 9 10 10 10 7 7 5 4 7 7 11 11 10 10
4 5 5 4 4 3 3 3 3 2 3 3 3 3 4 3 3 4 4 3 3 3 2 3 3 3 4 3 5 6 7 8 9 9 7 8 5 5 7 8 9 10 10 9 11 10 9
4 4 5 5 4 4 3 3 3 3 3 3 3 3 3 3 3 3 4 3 2 2 1 2 3 3 3 3 3 6 7 8 8 7 8 6 5 8 8 9 9 9 10 10 10 10 10
4 5 5 5 5 4 4 4 3 3 3 3 3 3 3 4 3 4 4 3 3 3 1 2 2 2 3 5 5 6 7 9 8 8 7 5 7 9 8 7 9 9 9 8 7 9 9
3 5 6 6 5 5 5 4 4 4 3 3 3 3 3 4 4 3 4 4 4 4 2 1 2 3 4 5 5 6 7 7 9 7 7 6 8 8 7 7 8 8 9 9 9 6 4
4 6 6 6 6 6 6 5 5 5 3 4 3 4 4 4 4 4 4 4 4 4 2 2 3 3 4 5 5 7 7 9 8 8 7 5 6 7 8 8 9 8 9 9 9 7 5
5 6 6 7 7 7 6 6 6 6 6 5 4 4 5 5 6 5 5 5 4 1 4 3 3 4 5 5 6 7 8 8 9 7 7 7 8 8 8 9 9 9 8 8 9 8 3
6 6 7 7 7 8 8 7 7 6 6 6 6 5 5 6 5 5 4 4 2 3 3 4 4 5 7 7 7 8 8 7 6 4 4 8 8 9 9 8 9 9 6 3 4 3 4
7 7 7 7 8 8 8 8 8 7 7 6 6 6 5 5 4 4 4 3 4 5 5 5 6 7 7 8 8 8 8 7 9 7 3 4 3 7 8 9 7 8 8 3 3 5 4
8 8 7 7 8 8 8 9 9 8 8 7 7 6 6 6 5 5 4 4 3 5 7 6 7 8 8 8 8 8 9 8 9 8 6 5 6 9 8 11 9 7 7 8 4 6 3
8 8 8 7 8 8 8 9 9 9 9 9 8 7 7 7 6 6 3 4 6 8 9 9 8 9 8 8 8 8 9 9 9 9 9 9 6 9 9 9 9 9 9 8 5 4 8
8 8 8 8 8 8 9 9 10 10 10 9 8 8 8 8 8 9 2 5 7 8 8 8 9 9 9 9 8 9 9 9 10 9 9 10 9 8 8 7 8 9 8 8 8 9 8
7 8 8 8 8 8 9 10 10 11 11 10 9 5 9 8 7 6 2 7 9 9 9 10 9 9 10 10 11 9 9 9 10 9 9 9 8 5 8 9 9 8 8 8 5 7 8
7 8 8 8 8 9 9 10 11 11 11 11 10 10 9 9 4 1 8 8 8 9 9 9 10 10 10 10 9 9 8 9 10 9 8 8 7 3 6 7 9 9 8 9 8 6 5
7 7 8 9 9 9 9 10 11 11 11 11 11 4 10 10 9 8 9 9 9 9 10 10 10 10 10 10 10 9 8 9 9 9 8 8 7 6 6 8 8 8 8 8 7 3 5
7 7 8 8 9 9 9 10 11 11 12 11 10 6 8 3 8 7 9 9 10 9 10 10 10 9 9 10 10 9 9 8 9 8 8 7 6 6 7 7 7 7 8 8 6 7 6
7 7 7 8 9 9 9 9 10 12 12 11 10 9 9 9 9 9 8 9 8 9 8 9 9 9 9 9 8 8 8 9 8 7 8 6 5 6 3 6 6 6 6 7 8 8 8
7 7 7 7 8 8 9 9 9 11 12 11 9 9 9 9 8 7 7 8 8 8 9 9 8 8 9 8 8 8 8 7 8 6 6 6 4 3 4 5 5 6 6 8 8 8 9
6 6 6 7 7 8 8 8 8 8 9 10 9 9 9 7 7 7 9 9 9 8 8 9 9 8 8 8 8 7 7 6 7 7 8 6 6 3 2 4 5 9 10 9 8 9 9
6 6 5 6 6 7 7 7 7 8 7 8 8 8 8 5 8 8 8 8 9 8 7 8 9 8 8 8 6 6 6 7 7 6 6 6 5 3 3 4 6 9 8 8 8 9 8
6 6 6 5 6 6 7 7 7 7 7 7 7 7 7 6 6 9 8 9 6 6 6 8 8 8 8 5 6 8 7 9 7 6 6 6 5 4 4 6 7 9 9 10 10 7 9
6 5 6 5 6 6 7 7 7 6 6 6 6 7 7 6 8 8 7 7 8 7 5 8 8 7 7 4 5 5 4 8 7 7 4 4 4 3 3 3 5 7 9 10 10 10 11
6 5 5 5 6 5 6 6 7 7 6 6 6 6 6 6 8 7 7 8 8 7 5 8 6 6 4 5 5 5 5 6 6 6 4 4 2 2 3 3 4 8 8 8 9 10 11
6 5 5 5 5 6 5 6 6 6 6 6 6 5 5 5 6 7 7 7 7 7 8 8 7 7 7 4 3 3 5 4 4 6 6 6 6 5 5 5 8 9 10 12 11 11 11
Height
1509 1504 1499 1493 1487 1480 1472 1464 1456 1452 1451 1455 1457 1459 1460 1462 1463 1465 1466 1467 1470 1472 1473 1475 1478 1479 1481 1484 1488 1491 1493 1497 1499 1501 1502 1504 1505 1508 1512 1514 1516 1520 1523 1524 1526 1526 1528
1510 1505 1501 1495 1489 1482 1476 1468 1462 1459 1458 1459 1461 1461 1463 1464 1465 1465 1466 1469 1470 1472 1474 1476 1479 1480 1483 1486 1490 1491 1493 1498 1500 1501 1504 1505 1507 1509 1511 1514 1518 1519 1523 1525 1526 1527 1529
1511 1506 1502 1497 1492 1486 1481 1474 1468 1464 1464 1463 1464 1464 1465 1466 1467 1467 1467 1469 1472 1474 1475 1477 1479 1481 1485 1488 1490 1492 1494 1499 1500 1501 1503 1506 1506 1508 1511 1516 1520 1520 1525 1526 1526 1528 1529
1512 1507 1503 1499 1495 1490 1485 1479 1474 1470 1468 1468 1467 1468 1467 1468 1468 1469 1470 1472 1474 1475 1476 1477 1479 1482 1486 1488 1491 1494 1496 1499 1500 1502 1503 1505 1507 1509 1514 1519 1521 1523 1526 1532 1528 1527 1529
1514 1509 1505 1502 1498 1494 1488 1483 1478 1475 1472 1471 1470 1469 1470 1470 1470 1471 1473 1474 1475 1476 1478 1479 1482 1483 1489 1490 1494 1497 1499 1501 1502 1504 1505 1507 1510 1514 1518 1522 1534 1527 1540 1527 1529 1527 1529
1516 1512 1507 1504 1501 1496 1491 1487 1482 1479 1476 1474 1472 1472 1472 1472 1472 1473 1474 1476 1478 1480 1481 1483 1484 1488 1492 1491 1494 1497 1501 1502 1503 1506 1510 1511 1513 1518 1521 1528 1548 1534 1535 1526 1528 1529 1529
1518 1513 1509 1506 1502 1498 1494 1489 1485 1481 1478 1477 1475 1474 1474 1474 1474 1475 1478 1480 1484 1486 1485 1488 1490 1489 1493 1494 1496 1502 1504 1505 1507 1509 1512 1513 1520 1529 1524 1523 1523 1524 1525 1528 1525 1528 1529
1519 1515 1511 1506 1502 1498 1495 1491 1487 1484 1480 1478 1476 1475 1476 1477 1478 1479 1481 1482 1484 1489 1492 1492 1492 1494 1498 1500 1505 1505 1507 1508 1510 1511 1511 1518 1527 1523 1521 1522 1524 1525 1525 1528 1527 1526 1526
1520 1517 1513 1508 1503 1499 1495 1492 1489 1486 1482 1478 1477 1477 1477 1479 1481 1482 1484 1485 1487 1489 1494 1501 1500 1501 1502 1505 1507 1507 1508 1508 1510 1512 1514 1522 1526 1523 1524 1527 1527 1529 1529 1533 1536 1528 1523
1521 1518 1514 1510 1505 1500 1495 1492 1490 1487 1484 1480 1479 1478 1479 1480 1486 1485 1487 1488 1490 1490 1498 1511 1508 1507 1508 1506 1511 1510 1509 1511 1510 1517 1518 1524 1525 1525 1527 1528 1527 1530 1529 1529 1529 1537 1549
1522 1519 1516 1512 1507 1502 1498 1494 1491 1488 1486 1483 1482 1482 1483 1484 1485 1487 1490 1489 1489 1490 1515 1516 1513 1513 1511 1512 1514 1513 1512 1511 1512 1514 1518 1532 1528 1527 1526 1528 1527 1533 1529 1530 1531 1535 1545
1523 1520 1517 1514 1509 1505 1499 1497 1493 1491 1489 1488 1486 1486 1486 1487 1489 1490 1491 1491 1491 1502 1512 1517 1517 1516 1516 1514 1515 1514 1514 1514 1515 1518 1520 1525 1526 1527 1528 1528 1529 1530 1531 1531 1530 1535 1560
1524 1521 1518 1515 1511 1507 1502 1498 1496 1493 1492 1491 1491 1490 1490 1490 1492 1491 1492 1491 1498 1509 1522 1519 1518 1517 1514 1516 1516 1515 1515 1516 1520 1534 1537 1526 1528 1528 1528 1530 1530 1529 1538 1561 1561 1562 1555
1525 1523 1519 1516 1512 1508 1505 1502 1500 1497 1495 1494 1495 1495 1494 1494 1493 1493 1494 1494 1502 1514 1515 1518 1516 1515 1514 1515 1514 1514 1516 1519 1515 1517 1535 1540 1550 1529 1527 1527 1534 1532 1535 1558 1569 1555 1551
1526 1524 1521 1517 1514 1511 1507 1505 1503 1502 1500 1497 1497 1497 1496 1495 1494 1494 1495 1499 1515 1514 1512 1514 1514 1512 1514 1513 1513 1514 1514 1516 1516 1515 1528 1533 1536 1527 1527 1525 1528 1536 1537 1534 1549 1540 1556
1527 1525 1522 1519 1515 1512 1509 1506 1504 1502 1502 1501 1501 1498 1498 1497 1496 1496 1498 1506 1508 1506 1507 1509 1509 1506 1513 1513 1513 1513 1514 1515 1516 1515 1516 1519 1534 1526 1527 1527 1528 1529 1530 1536 1544 1556 1530
1528 1525 1523 1521 1517 1513 1510 1507 1505 1505 1503 1502 1501 1500 1502 1500 1499 1499 1513 1513 1510 1510 1510 1509 1505 1507 1509 1509 1510 1510 1515 1516 1514 1516 1515 1516 1519 1529 1528 1529 1524 1529 1530 1529 1529 1527 1533
1528 1526 1523 1522 1519 1515 1511 1509 1506 1506 1504 1504 1503 1504 1505 1502 1503 1507 1515 1510 1510 1510 1508 1508 1507 1508 1508 1505 1506 1511 1514 1514 1513 1515 1517 1518 1521 1536 1523 1515 1514 1518 1521 1522 1539 1531 1525
1528 1527 1524 1523 1520 1516 1512 1510 1507 1505 1505 1505 1506 1507 1508 1505 1517 1518 1512 1511 1511 1511 1510 1509 1509 1509 1508 1508 1513 1512 1515 1515 1515 1516 1518 1519 1523 1542 1532 1525 1516 1517 1516 1515 1520 1528 1532
1529 1526 1525 1523 1521 1518 1513 1510 1508 1506 1504 1505 1506 1511 1510 1510 1511 1512 1512 1512 1514 1512 1512 1511 1510 1510 1510 1509 1507 1512 1514 1515 1515 1516 1517 1517 1519 1520 1524 1513 1511 1515 1511 1512 1518 1540 1524
1532 1527 1525 1523 1520 1519 1515 1511 1509 1507 1505 1506 1506 1511 1513 1518 1512 1513 1512 1513 1512 1514 1512 1511 1510 1511 1511 1510 1509 1511 1512 1515 1515 1515 1516 1518 1522 1516 1513 1510 1509 1509 1509 1508 1512 1507 1514
1533 1530 1526 1524 1521 1518 1516 1512 1509 1508 1506 1505 1508 1510 1511 1511 1512 1513 1513 1515 1516 1515 1514 1512 1512 1511 1509 1511 1513 1513 1512 1511 1513 1516 1516 1517 1522 1517 1523 1506 1507 1507 1501 1500 1499 1498 1496
1534 1531 1528 1524 1521 1518 1516 1514 1511 1508 1507 1507 1508 1509 1510 1512 1512 1514 1516 1515 1515 1514 1514 1513 1513 1513 1511 1511 1511 1510 1510 1510 1511 1514 1515 1518 1522 1526 1521 1509 1505 1501 1486 1482 1482 1480 1477
1534 1532 1529 1525 1522 1519 1516 1515 1513 1510 1509 1508 1508 1509 1509 1513 1511 1511 1512 1512 1513 1513 1513 1512 1512 1512 1512 1510 1509 1508 1509 1508 1509 1509 1510 1514 1518 1526 1528 1514 1516 1472 1466 1466 1469 1463 1464
1535 1533 1530 1526 1523 1520 1517 1515 1514 1513 1511 1511 1509 1509 1509 1511 1508 1510 1511 1511 1511 1511 1512 1512 1511 1512 1510 1510 1510 1510 1512 1509 1507 1508 1509 1511 1517 1525 1527 1523 1491 1464 1464 1465 1466 1456 1448
1535 1533 1531 1527 1524 1521 1518 1516 1514 1513 1512 1511 1511 1511 1511 1511 1510 1509 1508 1509 1512 1512 1511 1510 1510 1510 1510 1510 1512 1510 1515 1503 1509 1511 1510 1512 1513 1521 1521 1513 1498 1461 1457 1459 1460 1466 1441
1533 1532 1531 1528 1525 1522 1520 1517 1515 1513 1512 1512 1511 1511 1511 1510 1508 1509 1509 1509 1508 1509 1510 1508 1508 1509 1509 1513 1515 1516 1519 1504 1509 1507 1516 1518 1519 1521 1525 1520 1489 1460 1458 1460 1466 1457 1441
1531 1530 1529 1527 1525 1522 1520 1518 1516 1515 1513 1512 1511 1510 1511 1509 1506 1506 1507 1507 1507 1508 1509 1509 1510 1509 1510 1514 1516 1514 1513 1507 1505 1501 1506 1509 1519 1519 1520 1519 1499 1454 1459 1461 1447 1441 1441
1529 1527 1527 1526 1524 1522 1520 1519 1517 1514 1513 1512 1511 1509 1508 1508 1506 1504 1504 1504 1504 1506 1507 1505 1505 1504 1505 1510 1512 1511 1509 1509 1507 1505 1490 1498 1486 1492 1490 1472 1449 1449 1445 1444 1443 1442 1442
Wind_Speed
24 26 28 29 30 32 34 32 24 18 13 12 9 5 6 6 5 5 6 8 6 8 7 4 4 6 16 12 5 4 11 7 15 15 12 12 12 5 7 6 5 4 3 6 5 3 2
23 25 27 29 30 31 32 33 23 20 16 12 10 10 9 8 7 6 7 6 5 7 7 5 5 10 14 6 8 9 14 8 14 17 11 3 2 4 9 6 3 6 9 8 4 2 3
22 24 25 27 27 28 29 31 26 19 15 13 11 10 9 8 9 10 12 8 7 9 9 7 6 13 9 10 14 18 17 11 9 10 10 6 6 4 7 5 6 7 4 2 2 3 1
21 22 24 25 26 27 28 27 26 22 16 9 14 12 10 10 10 10 10 9 6 6 7 6 8 14 6 9 15 13 16 13 10 12 13 11 10 13 5 11 4 3 4 2 2 3 1
23 22 23 24 26 27 27 26 23 20 19 18 16 12 11 10 11 10 9 8 9 12 9 10 11 12 6 12 15 18 15 13 12 11 12 12 13 6 6 4 5 3 2 3 1 5 1
21 22 22 21 22 23 27 27 22 18 16 17 15 13 13 11 9 10 10 10 16 15 16 12 13 8 8 7 19 15 16 10 12 14 12 6 4 3 3 4 4 4 3 1 2 3 2
18 20 21 23 21 21 21 23 24 19 13 13 15 13 11 13 12 16 14 15 11 11 24 9 13 11 21 20 20 15 7 11 13 2 3 2 6 3 5 3 3 2 4 3 1 3 2
18 19 22 23 23 23 21 21 19 19 18 8 8 11 11 15 17 16 10 10 10 10 10 24 23 21 18 13 9 8 8 2 1 4 3 5 4 3 6 6 5 5 2 2 2 2 2
16 19 23 25 25 23 20 17 17 17 17 12 7 9 12 12 14 9 13 21 17 10 7 12 15 12 8 14 8 5 6 2 4 3 4 6 3 4 5 4 3 2 3 3 1 5 3
16 20 23 25 27 26 23 16 13 12 16 17 13 13 15 16 12 14 19 18 11 4 4 8 8 8 8 5 6 3 4 3 3 6 7 6 0 4 5 3 2 3 4 4 3 4 1
16 19 22 25 28 28 25 21 13 11 13 19 15 16 14 8 15 13 16 10 4 3 6 7 5 5 10 6 5 3 6 4 4 3 5 3 3 2 3 1 2 2 3 3 3 4 5
15 17 20 24 27 28 26 21 17 10 11 15 16 18 23 22 22 19 14 3 8 5 7 3 1 4 4 1 2 1 3 4 6 8 8 4 3 2 2 3 4 2 3 2 1 2 2
14 15 18 22 25 27 26 22 17 14 8 9 10 12 17 18 15 15 7 9 4 6 1 4 4 3 6 7 7 4 2 2 2 5 4 2 2 2 1 4 3 2 4 2 3 1 5
13 13 16 20 24 25 25 20 17 21 15 11 7 7 5 6 7 5 6 4 9 5 5 1 4 7 4 4 2 1 4 2 2 4 3 4 5 3 3 2 5 2 1 3 4 1 4
14 12 14 18 22 23 23 19 11 10 19 21 18 13 6 3 8 8 2 6 5 4 6 7 5 3 2 2 3 2 4 2 2 3 5 4 1 1 3 3 4 2 2 2 2 3 3
16 13 12 15 19 21 22 19 14 6 5 7 9 9 13 10 7 5 5 5 4 2 2 4 2 1 3 4 2 3 2 1 2 3 4 4 4 5 2 3 4 2 4 2 1 2 4
17 15 13 13 16 19 20 20 15 12 8 8 7 4 10 7 12 10 4 3 3 6 4 1 4 4 3 4 6 3 2 0 3 2 2 1 3 1 5 6 8 5 3 4 2 2 1
17 16 14 13 14 17 18 18 13 9 11 8 8 4 11 6 5 4 2 0 1 2 4 2 4 6 2 2 4 4 3 2 5 6 2 2 2 3 8 5 6 5 6 5 4 4 3
17 16 15 14 13 15 16 15 13 8 4 3 5 4 11 8 3 2 0 2 3 3 3 4 3 2 1 2 3 3 3 3 5 1 3 2 2 2 6 6 3 4 5 5 3 3 6
15 18 15 13 13 13 14 15 15 10 6 5 4 2 4 5 6 1 2 2 2 2 2 4 1 3 2 0 0 4 3 3 6 1 1 2 2 5 7 4 3 4 6 7 6 3 3
15 15 17 13 12 12 12 13 13 11 7 3 3 2 1 1 3 4 3 3 2 2 3 0 1 4 2 1 1 2 3 2 3 4 1 3 3 2 6 8 5 7 8 8 11 12 7
16 16 16 17 13 12 12 12 11 11 7 7 4 3 2 3 2 4 3 3 4 3 4 3 3 4 3 3 3 1 2 3 4 2 3 1 3 4 5 7 5 7 11 15 15 15 16
16 17 17 16 17 14 12 12 12 10 6 6 6 5 2 1 2 3 1 2 2 1 1 1 1 3 3 3 3 5 6 6 4 5 5 5 2 3 5 6 8 7 9 18 9 8 21
17 18 18 15 15 16 14 13 13 13 9 7 6 3 2 2 2 3 3 2 2 2 2 2 2 1 1 6 12 8 9 9 8 7 6 2 2 2 4 6 2 6 5 7 16 11 19
14 16 18 17 14 15 15 13 12 12 10 5 3 2 1 2 4 3 4 3 3 5 3 3 3 4 7 7 3 4 3 1 3 4 5 5 3 2 1 2 9 8 4 6 7 8 16
12 13 15 18 15 13 14 13 12 11 12 6 4 3 1 2 3 1 4 5 3 2 1 3 3 5 2 2 2 0 3 2 1 1 4 2 3 3 0 3 6 5 2 3 3 6 5
12 10 11 14 16 14 13 14 12 10 10 9 6 4 2 2 1 2 2 2 2 2 2 1 1 1 0 2 0 2 3 2 2 3 4 2 2 6 4 4 9 8 5 5 1 6 3
12 11 8 9 12 14 12 11 12 11 9 8 6 7 4 4 8 6 5 5 3 2 3 0 2 1 2 1 2 3 2 3 1 3 6 7 6 4 4 4 9 10 6 7 5 2 6
12 10 10 8 8 10 12 12 11 10 9 8 6 7 8 7 6 8 10 12 13 12 3 5 2 3 5 2 1 0 2 1 3 4 2 3 7 5 10 8 7 21 10 14 9 10 11
Wind_Direction
14 14 21 15 14 17 16 18 29 47 87 96 106 101 108 103 115 147 180 216 199 194 175 156 125 147 150 151 130 190 140 176 161 154 128 146 156 144 139 119 107 73 115 86 103 50 353
20 19 23 21 20 20 21 26 39 58 77 87 88 91 93 91 89 107 134 135 147 162 171 169 168 164 154 114 169 189 147 154 145 138 144 151 241 114 114 121 84 107 108 120 115 108 272
26 21 26 24 22 25 27 32 42 60 73 86 82 86 80 72 88 98 103 113 125 143 149 149 146 161 149 136 160 185 123 127 129 145 143 115 131 103 107 93 108 106 100 351 213 173 227
28 29 30 27 26 29 29 36 42 52 52 62 71 62 70 81 98 110 103 110 122 127 118 116 138 146 114 151 152 149 122 150 142 148 146 129 129 106 83 117 73 86 58 100 228 161 245
26 24 35 37 34 34 32 32 39 45 54 64 71 72 82 88 113 111 108 103 99 110 104 115 132 137 93 159 144 129 141 132 140 137 144 138 134 83 110 87 34 14 174 168 342 216 137
23 21 23 32 29 26 28 32 28 35 50 61 67 71 72 77 96 116 119 101 100 112 88 90 113 96 127 109 121 109 109 106 111 113 106 105 83 82 46 74 191 191 154 72 178 209 210
20 17 14 15 22 23 30 22 30 33 39 59 66 68 80 91 93 117 119 96 84 56 58 58 83 76 96 104 101 100 73 108 111 103 106 58 75 117 124 97 104 95 94 122 307 119 236
18 12 8 9 9 14 19 17 18 30 37 41 61 63 95 118 108 112 113 99 93 114 53 71 69 80 101 110 100 113 113 51 212 96 111 41 92 88 91 58 67 47 74 35 78 354 271
20 19 16 13 12 13 15 19 21 19 33 34 69 82 106 128 139 92 122 117 115 104 77 35 25 36 51 78 86 75 33 102 134 93 65 99 129 111 74 44 82 76 63 53 146 330 332
27 33 24 21 19 18 19 25 27 28 33 54 78 89 118 127 131 115 127 121 100 42 85 5 15 23 32 93 61 36 38 30 33 116 99 85 7 81 92 55 62 95 15 75 5 49 298
32 36 30 24 23 23 22 30 39 47 53 63 83 84 109 124 127 136 141 136 31 346 71 355 19 64 54 51 133 26 41 50 69 92 82 255 125 104 88 139 35 120 24 1 34 5 47
31 38 35 26 26 26 29 31 40 55 77 79 93 97 111 116 120 128 149 184 321 45 55 51 104 28 90 122 41 129 24 77 93 66 60 96 133 58 46 86 57 3 45 8 68 44 359
22 40 39 33 28 30 30 33 41 53 76 101 97 118 129 130 139 151 167 331 53 61 244 12 70 114 106 105 168 196 133 69 124 89 27 173 124 117 66 123 82 56 63 22 354 345 219
19 26 41 38 33 33 34 39 51 64 74 88 118 135 138 161 165 174 322 37 62 12 59 114 160 148 93 135 348 83 143 64 11 87 137 123 336 182 176 228 168 93 134 162 213 283 269
22 20 28 38 38 33 35 39 48 64 74 82 84 84 71 258 236 261 312 51 131 197 151 177 185 125 105 179 156 233 140 106 44 48 121 125 310 138 193 158 138 168 201 121 64 283 35
16 16 20 32 42 38 31 40 40 57 65 57 46 46 54 72 81 83 62 86 64 104 75 180 235 121 123 180 140 175 128 7 109 11 51 161 97 215 175 52 270 189 148 151 117 35 288
16 15 13 23 37 41 38 38 49 54 56 28 16 34 18 45 63 57 88 81 50 354 344 332 16 119 161 185 189 135 98 237 127 172 347 25 141 185 121 207 177 182 219 208 187 179 240
22 12 14 11 24 36 40 38 39 54 52 46 39 43 3 24 52 56 52 219 103 292 327 318 36 44 75 294 70 58 115 117 132 158 183 211 128 171 209 229 164 176 192 169 131 220 223
28 20 9 7 11 24 36 35 37 31 27 65 69 57 23 25 83 344 36 50 65 23 2 15 39 40 317 69 94 110 97 138 148 173 186 196 216 59 348 348 337 214 207 197 132 89 217
27 27 16 12 359 12 26 31 28 39 44 110 108 46 65 62 42 48 36 101 59 3 341 348 9 338 311 276 166 150 137 188 178 95 123 58 254 196 193 202 138 213 211 200 156 145 221
13 27 23 17 14 356 16 29 29 35 58 99 61 117 69 333 2 11 54 346 70 29 354 321 80 39 36 330 147 116 130 123 183 186 177 140 244 237 254 258 242 234 234 223 206 212 201
9 7 19 21 17 12 356 16 30 31 54 87 100 110 132 141 304 357 42 23 34 9 23 357 75 327 7 112 154 235 11 163 199 196 193 159 277 1 282 284 257 253 240 230 236 232 244
7 8 7 16 17 22 13 1 17 33 47 78 96 106 121 328 340 97 239 185 157 172 268 208 248 346 291 201 259 266 248 255 230 168 203 162 172 32 274 331 315 292 227 218 213 204 218
16 11 6 6 15 19 24 19 17 23 36 85 95 117 130 266 116 173 183 184 211 210 237 250 252 210 240 299 298 272 263 268 246 246 195 150 134 141 269 346 331 243 198 203 203 228 217
5 6 10 6 8 15 22 25 23 24 23 359 59 135 190 202 182 188 188 209 263 249 250 248 259 267 305 320 10 2 346 321 251 235 222 170 126 279 171 252 291 299 199 187 186 274 216
349 355 359 9 5 9 17 24 26 23 24 29 357 1 19 356 273 148 174 204 198 200 306 234 255 279 301 51 55 92 254 254 268 293 20 89 121 145 32 245 245 244 211 173 101 285 212
330 337 347 356 9 4 9 15 18 23 21 27 30 6 322 291 258 279 225 194 178 176 194 239 200 89 263 70 108 208 270 169 230 217 167 134 232 212 232 276 283 249 186 144 132 246 179
312 316 330 344 352 5 6 15 17 13 10 14 16 11 2 274 270 238 238 244 239 215 149 251 14 1 68 94 157 260 188 255 276 213 182 174 160 200 175 217 274 176 116 174 224 227 210
306 305 309 321 337 347 5 4 7 11 4 356 349 339 331 291 273 277 254 253 258 243 248 213 194 163 211 112 222 170 287 282 192 268 182 239 195 186 191 218 240 197 233 235 265 260 252